Location: Karcze
(52.0945°N, 22.4786°E)
Time: 11:27:30
(UTC+00:00)

Tiros 1 - Visible Passes

Search period start: 02 August 2021 00:00
Search period end: 12 August 2021 00:00
Orbit: 630 x 664 km, 48.4° (Epoch: 02 August)

Date Brightness Start Highest point End Pass type
(mag) Time Alt. Az. Time Alt. Az. Time Alt. Az.
02 Aug 7.6 20:16:14 10° W 20:20:43 42° SSW 20:23:03 24° SE visible
02 Aug 9.1 21:58:59 10° WSW 22:00:41 16° WSW 22:00:41 16° WSW visible
03 Aug 7.4 19:00:03 10° W 19:04:42 53° S 19:09:17 10° ESE visible
03 Aug 8.1 20:42:16 10° W 20:46:23 30° SSW 20:47:26 27° S visible
04 Aug 7.7 19:25:57 10° W 19:30:28 44° SSW 19:34:13 14° SE visible
04 Aug 8.8 21:08:37 10° W 21:11:50 19° SW 21:11:50 19° SW visible
05 Aug 8.2 19:51:58 10° W 19:56:09 31° SSW 19:58:39 19° SSE visible
06 Aug 8.8 20:18:15 10° W 20:21:42 20° SW 20:23:09 17° S visible
07 Aug 8.2 19:01:40 10° W 19:05:55 33° SSW 19:10:03 10° SE visible
07 Aug 9.4 20:45:44 10° WSW 20:47:05 11° SW 20:47:42 11° SW visible
08 Aug 8.8 19:27:54 10° W 19:31:29 21° SSW 19:34:38 12° SSE visible
09 Aug 9.4 19:55:04 10° WSW 19:56:53 12° SW 19:58:41 10° SSW visible
10 Aug 8.9 18:37:34 10° W 18:41:16 23° SSW 18:44:56 10° SSE visible
11 Aug 9.5 19:04:31 10° WSW 19:06:41 13° SW 19:08:50 10° SSW visible
